Regional Weather Roundup
Issued by NWS Kansas City/Pleasant Hill, MO

Home | Current Version | Previous Version | Text Only | Print | Product List | Glossary On
Versions: 1 2 3 4 5 6 7 8 9 10 11 12 13 14 15 16 17 18 19 20 21 22 23 24 25 26 27 28
000
ASUS43 KEAX 281610
RWREAX

WEATHER ROUNDUP FOR EASTERN KANSAS AND NORTHWEST MISSOURI
NATIONAL WEATHER SERVICE KANSAS CITY/PLEASANT HILL MO
1100 AM CDT WED SEP 28 2016

KSZ040-057-103>105-MOZ028-029-037-043-281700-
...KANSAS CITY METROPOLITAN AREA...

CITY           SKY/WX    TMP DP  RH WIND       PRES   REMARKS
K.C. INTL      MOSUNNY   59  45  59 N16       30.09R
K.C. DOWNTOWN  SUNNY     63  46  54 N13       30.08R
LEES SUMMIT    SUNNY     61  47  59 N14       30.07R
OLATHE - IXD   SUNNY     62  46  55 N18       30.08R
OLATHE - OJC   SUNNY     61  45  55 N18       30.07R
LAWRENCE       SUNNY     63  46  54 N18       30.09R

$$

MOZ001>008-011>017-020>025-030>033-038>040-044>046-053-054-281700-
...NORTHERN AND CENTRAL MISSOURI...

CITY           SKY/WX    TMP DP  RH WIND       PRES   REMARKS
ST. JOSEPH     SUNNY     60  46  59 N10G18    30.11R
MOSBY          SUNNY     61  45  55 N13G18    30.08R
WHITEMAN AFB   MOSUNNY   62  47  57 N17G25    30.03R
CLINTON        SUNNY     64  46  52 N15G21    30.02R
SEDALIA        SUNNY     65  45  48 N15G24    30.04R
WARSAW         NOT AVBL
CHILLICOTHE      N/A     58  46  64 N12G20    30.09R
KIRKSVILLE     MOSUNNY   59  45  59 N15       30.05R

$$

MOZ041-047>049-056>058-063>065-088>090-097-281700-
...EASTERN AND SOUTHERN MISSOURI...

CITY           SKY/WX    TMP DP  RH WIND       PRES   REMARKS
ST. LOUIS INTL MOSUNNY   65  46  50 N17       29.93R
SPIRIT OF STL  MOSUNNY   64  47  53 N14G28    29.94R
COLUMBIA       SUNNY     63  45  51 N12       29.99R
JEFFERSON CITY SUNNY     64  46  52 NW12      29.99R
ROLLA          SUNNY     66  45  46 N13       29.96R
OSAGE BEACH    SUNNY     67  44  43 N8        29.99R
SPRINGFIELD    SUNNY     71  50  47 N14       29.98R
BRANSON        SUNNY     72  52  49 NW12      29.98R
JOPLIN         SUNNY     71  51  49 N13       30.02R
WEST PLAINS    SUNNY     73  54  51 NW8       29.94R

$$

IAZ060-094-KSZ022-034>040-054-083-096-NEZ052-066-093-281700-
...KANSAS...SOUTHEAST NEBRASKA AND IOWA...

CITY           SKY/WX    TMP DP  RH WIND       PRES   REMARKS
TOPEKA         SUNNY     62  47  57 N17G24    30.10R
MANHATTAN      SUNNY     65  44  46 NE13      30.13R
EMPORIA        SUNNY     66  44  45 N15G24    30.09R
CHANUTE        SUNNY     71  44  37 N14       30.05R
WICHITA        SUNNY     72  51  47 N16       30.09R
OMAHA          MOSUNNY   58  45  62 N15       30.17R
LINCOLN        SUNNY     60  45  57 N15       30.20R
FALLS CITY     SUNNY     59  45  59 N16       30.13R
LAMONI         CLOUDY    54  46  74 N15       30.10R
DES MOINES     CLOUDY    56  46  69 N10       30.10R

$$





USA.gov is the U.S. government's official web portal to all federal, state and local government web resources and services.